1506657600.31,21431,15.19,74472.3,-4.37,-39.47,-39.71,0,*50
1506657601.56,21432,15.19,74470.8,-4.37,-39.29,-39.71,0,*5B
1506657602.78,21433,15.19,74472.3,-4.37,-39.47,-39.71,0,*52
1506657604.0,21434,15.19,74470.8,-4.37,-39.35,-39.53,0,*50
1506657605.23,21435,15.19,74470.5,-4.37,-39.47,-39.59,0,*5E
1506657606.52,21436,15.19,74470.5,-4.35,-39.53,-39.79,0,*58
1506657607.78,21437,15.19,74472.8,-4.37,-39.79,-39.97,0,*53
1506657609.03,21438,15.19,74472.8,-4.37,-39.71,-39.97,0,*54
1506657610.27,21439,15.19,74472.0,-4.37,-39.59,-39.91,0,*59
1506657611.56,21440,15.19,74468.5,-4.35,-39.71,-39.79,0,*59
1506657612.82,21441,15.19,74470.3,-4.37,-39.59,-39.79,0,*50
1506657614.05,21442,15.19,74470.8,-4.37,-39.47,-39.71,0,*54
1506657615.28,21443,15.19,74474.5,-4.37,-39.53,-39.91,0,*5E
1506657616.54,21444,15.19,74472.0,-4.37,-39.59,-39.79,0,*55
1506657617.77,21445,15.19,74468.5,-4.37,-39.71,-39.91,0,*58
1506657619.01,21446,15.19,74470.5,-4.37,-39.59,-39.91,0,*51
1506657620.27,21447,15.19,74472.8,-4.37,-39.59,-39.79,0,*56
1506657621.52,21448,15.19,74468.5,-4.39,-39.59,-39.85,0,*54
1506657622.78,21449,15.19,74470.0,-4.39,-39.59,-39.85,0,*55
1506657624.03,21450,15.19,74472.3,-4.39,-39.59,-39.85,0,*5D
1506657625.29,21451,15.19,74468.0,-4.37,-39.59,-39.97,0,*51
1506657626.55,21452,15.19,74468.0,-4.37,-39.59,-39.79,0,*52
1506657627.8,21453,15.19,74470.5,-4.37,-39.53,-39.71,0,*51
1506657629.09,21454,15.19,74468.5,-4.35,-39.53,-39.79,0,*5C
1506657630.35,21455,15.19,74470.0,-4.37,-39.59,-39.71,0,*5D
1506657631.55,21456,15.25,74472.3,-4.37,-39.85,-40.03,0,*54
1506657632.77,21457,15.19,74472.5,-4.37,-39.35,-39.59,0,*5F
1506657634.03,21458,15.19,74470.5,-4.37,-39.71,-39.97,0,*52
1506657635.28,21459,15.19,74470.5,-4.37,-39.53,-39.71,0,*5B
1506657636.51,21460,15.19,74470.8,-4.37,-39.71,-39.91,0,*5F
1506657637.77,21461,15.19,74468.5,-4.37,-39.71,-40.09,0,*51
1506657639.02,21462,15.19,74470.5,-4.37,-39.53,-39.71,0,*53
1506657640.25,21463,15.19,74472.5,-4.37,-39.71,-39.91,0,*5C
1506657641.51,21464,15.19,74472.5,-4.37,-39.79,-40.09,0,*5C
1506657642.77,21465,15.19,74468.3,-4.39,-39.79,-40.03,0,*59
1506657643.99,21466,15.19,74468.8,-4.39,-39.65,-39.85,0,*57
1506657645.25,21467,15.19,74468.8,-4.39,-39.59,-39.85,0,*59
1506657646.52,21468,15.19,74470.5,-4.39,-39.53,-39.79,0,*5F
1506657647.8,21469,15.19,74468.3,-4.39,-39.53,-39.79,0,*5E
1506657649.08,21470,15.19,74466.5,-4.39,-39.59,-39.79,0,*5C
1506657650.33,21471,15.19,74472.3,-4.39,-39.65,-39.97,0,*52
1506657651.56,21472,15.19,74474.3,-4.39,-39.85,-40.15,0,*5B
1506657652.79,21473,15.25,74474.0,-4.39,-39.65,-40.03,0,*53
1506657653.99,21474,15.19,74472.8,-4.41,-39.85,-40.03,0,*55
1506657655.24,21475,15.19,74470.8,-4.39,-39.79,-40.03,0,*58
1506657656.5,21476,15.19,74468.8,-4.39,-39.79,-39.85,0,*5B
1506657657.75,21477,15.19,74470.8,-4.39,-39.65,-39.97,0,*54
1506657658.96,21478,15.19,74468.0,-4.41,-39.85,-40.03,0,*59
1506657660.19,21479,15.19,74470.0,-4.41,-39.59,-39.85,0,*59
1506657661.43,21480,15.19,74470.8,-4.41,-39.59,-39.65,0,*51
1506657662.68,21481,15.19,74474.3,-4.37,-39.53,-39.79,0,*56
1506657663.91,21482,15.19,74466.8,-4.41,-39.65,-39.97,0,*51
1506657665.17,21483,15.19,74470.5,-4.39,-39.79,-40.03,0,*51
1506657666.37,21484,15.19,74472.3,-4.41,-39.85,-40.03,0,*5A
1506657667.66,21485,15.19,74470.0,-4.39,-39.79,-39.97,0,*54
1506657668.91,21486,15.19,74470.3,-4.39,-39.65,-39.97,0,*5A
1506657670.16,21487,15.19,74470.3,-4.41,-39.53,-39.79,0,*51
1506657671.42,21488,15.19,74468.5,-4.39,-39.79,-40.03,0,*5A
1506657672.68,21489,15.19,74468.3,-4.41,-39.79,-39.97,0,*57
1506657673.9,21490,15.19,74468.8,-4.39,-39.85,-40.03,0,*50
1506657675.14,21491,15.19,74472.5,-4.41,-39.79,-40.03,0,*5D
1506657676.37,21492,15.19,74468.3,-4.39,-39.85,-40.15,0,*55
1506657677.57,21493,15.19,74468.5,-4.41,-39.85,-40.03,0,*5C
1506657678.81,21494,15.19,74468.8,-4.41,-39.41,-39.65,0,*5D
1506657680.09,21495,15.19,74468.0,-4.39,-39.79,-39.97,0,*55
1506657681.34,21496,15.19,74468.5,-4.41,-39.23,-39.53,0,*5E
1506657682.61,21497,15.19,74468.5,-4.39,-39.41,-39.59,0,*5E
1506657683.85,21498,15.19,74474.8,-4.41,-39.23,-39.65,0,*55
1506657685.08,21499,15.19,74474.5,-4.41,-39.59,-39.85,0,*57
1506657686.31,21500,15.19,74470.0,-4.41,-39.85,-39.97,0,*54
1506657687.54,21501,15.19,74470.3,-4.39,-39.85,-40.03,0,*59
1506657688.77,21502,15.19,74468.8,-4.41,-39.65,-39.97,0,*58
1506657690.03,21503,15.25,74474.5,-4.41,-39.79,-39.97,0,*54
1506657691.23,21504,15.19,74468.3,-4.41,-39.65,-39.85,0,*5D
1506657692.47,21505,15.19,74468.5,-4.41,-39.79,-40.03,0,*51
1506657693.72,21506,15.19,74470.0,-4.43,-40.03,-40.29,0,*5B
1506657694.93,21507,15.19,74470.0,-4.41,-39.85,-40.03,0,*50
1506657696.16,21508,15.19,74468.3,-4.41,-39.79,-40.03,0,*5C
1506657697.39,21509,15.19,74468.3,-4.41,-39.79,-40.03,0,*5D
1506657698.63,21510,15.19,74470.5,-4.41,-39.79,-40.03,0,*55
1506657699.87,21511,15.19,74468.3,-4.41,-39.79,-39.85,0,*54
1506657701.1,21512,15.19,74472.8,-4.41,-39.79,-40.03,0,*57
1506657702.33,21513,15.19,74468.8,-4.41,-39.65,-39.97,0,*58
1506657703.59,21514,15.19,74470.5,-4.41,-39.53,-39.59,0,*58
1506657704.85,21515,15.19,74468.3,-4.41,-39.79,-39.97,0,*53
1506657706.1,21516,15.19,74466.8,-4.43,-40.03,-40.21,0,*52
1506657707.35,21517,15.19,74468.3,-4.43,-40.03,-40.21,0,*53
1506657708.61,21518,15.19,74470.0,-4.43,-39.91,-40.29,0,*51
1506657709.87,21519,15.19,74470.5,-4.43,-39.85,-40.09,0,*57
1506657711.1,21520,15.19,74470.8,-4.45,-39.71,-39.91,0,*5F
1506657712.36,21521,15.19,74468.5,-4.43,-39.91,-40.21,0,*53
1506657713.61,21522,15.19,74470.5,-4.45,-39.97,-40.29,0,*58
1506657714.86,21523,15.19,74472.5,-4.43,-40.03,-40.41,0,*52
1506657716.1,21524,15.19,74470.5,-4.45,-40.09,-40.35,0,*5A
1506657717.31,21525,15.19,74472.0,-4.45,-39.91,-40.15,0,*56
1506657718.54,21526,15.19,74470.8,-4.45,-39.85,-40.09,0,*5D
1506657719.78,21527,15.19,74468.3,-4.45,-39.91,-40.09,0,*59
1506657721.03,21528,15.19,74468.3,-4.43,-40.03,-40.21,0,*5F
1506657722.29,21529,15.19,74468.5,-4.45,-40.09,-40.29,0,*5A
1506657723.51,21530,15.19,74470.8,-4.45,-39.97,-40.15,0,*54
1506657724.77,21531,15.19,74470.0,-4.43,-39.71,-40.03,0,*5C
1506657726.0,21532,15.19,74468.0,-4.45,-39.91,-39.97,0,*54
1506657727.24,21533,15.19,74468.5,-4.45,-40.09,-40.15,0,*5E
1506657728.47,21534,15.19,74468.8,-4.45,-40.09,-40.15,0,*59
1506657729.72,21535,15.19,74468.3,-4.45,-39.97,-40.29,0,*5E
1506657730.95,21536,15.19,74468.0,-4.47,-40.15,-40.35,0,*56
1506657732.2,21537,15.19,74472.0,-4.47,-40.09,-40.15,0,*58
1506657733.43,21538,15.19,74468.8,-4.47,-39.65,-39.91,0,*51
1506657734.72,21539,15.19,74470.0,-4.47,-39.79,-40.09,0,*52
1506657735.98,21540,15.19,74472.3,-4.47,-39.91,-39.97,0,*53
1506657737.23,21541,15.19,74470.0,-4.47,-39.91,-40.09,0,*5B
1506657738.46,21542,15.19,74468.8,-4.47,-39.91,-40.15,0,*55
1506657739.71,21543,15.19,74470.3,-4.47,-39.97,-40.15,0,*52
1506657740.97,21544,15.19,74472.5,-4.49,-39.71,-39.97,0,*57
1506657742.25,21545,15.19,74472.0,-4.47,-39.79,-39.97,0,*50
1506657743.51,21546,15.19,74468.3,-4.47,-39.91,-40.09,0,*5C
1506657744.79,21547,15.19,74468.5,-4.47,-39.79,-39.97,0,*52
1506657746.02,21548,15.19,74468.5,-4.47,-39.91,-40.15,0,*5F
1506657747.24,21549,15.19,74472.3,-4.49,-39.97,-40.03,0,*51
1506657748.47,21550,15.19,74470.5,-4.49,-39.97,-40.15,0,*5E
1506657749.74,21551,15.19,74470.5,-4.47,-40.09,-40.29,0,*57
1506657751.0,21552,15.19,74470.3,-4.49,-39.79,-39.97,0,*58
1506657752.25,21553,15.19,74468.5,-4.49,-39.97,-40.21,0,*5A
1506657753.48,21554,15.19,74468.0,-4.49,-40.03,-40.21,0,*5E
1506657754.71,21555,15.19,74470.5,-4.47,-40.15,-40.35,0,*53
1506657755.94,21556,15.19,74470.5,-4.49,-39.79,-40.03,0,*5F
1506657757.2,21557,15.19,74470.0,-4.47,-39.79,-39.91,0,*55
1506657758.43,21558,15.19,74470.8,-4.49,-39.97,-40.15,0,*56
1506657759.63,21559,15.19,74468.8,-4.49,-40.03,-40.15,0,*54
1506657760.87,21560,15.19,74470.0,-4.49,-39.79,-40.15,0,*5D
1506657762.1,21561,15.19,74472.0,-4.49,-39.59,-39.85,0,*59
1506657763.35,21562,15.19,74468.5,-4.49,-39.53,-39.79,0,*53
1506657764.61,21563,15.19,74464.8,-4.49,-39.79,-39.97,0,*5A
1506657765.86,21564,15.19,74468.8,-4.51,-39.97,-40.15,0,*50
1506657767.11,21565,15.19,74470.3,-4.49,-39.97,-40.21,0,*5F
1506657768.37,21566,15.19,74470.8,-4.51,-39.79,-40.15,0,*52
1506657769.6,21567,15.19,74468.0,-4.51,-39.85,-40.03,0,*57
1506657770.85,21568,15.19,74470.5,-4.51,-40.03,-40.21,0,*58
1506657772.13,21569,15.19,74470.3,-4.55,-40.09,-40.41,0,*51
1506657773.4,21570,15.19,74468.8,-4.51,-39.79,-40.15,0,*55
1506657774.63,21571,15.19,74470.3,-4.51,-39.85,-40.03,0,*50
1506657775.9,21572,15.19,74470.0,-4.51,-39.97,-40.21,0,*50
1506657777.18,21573,15.19,74466.8,-4.55,-40.09,-40.21,0,*5C
1506657778.46,21574,15.19,74470.0,-4.51,-39.59,-39.97,0,*57
1506657779.71,21575,15.19,74466.5,-4.55,-40.03,-40.21,0,*50
1506657780.99,21576,15.19,74468.3,-4.51,-39.97,-40.21,0,*54
1506657782.25,21577,15.19,74468.3,-4.55,-40.21,-40.29,0,*5A
1506657783.51,21578,15.19,74468.8,-4.55,-39.91,-40.09,0,*52
1506657784.74,21579,15.19,74470.5,-4.55,-39.65,-39.85,0,*52
1506657785.99,21580,15.19,74468.3,-4.55,-40.03,-40.21,0,*5A
1506657787.24,21581,15.19,74468.8,-4.55,-39.91,-40.09,0,*54
1506657788.5,21582,15.19,74468.3,-4.55,-39.91,-40.21,0,*5D
1506657789.75,21583,15.19,74470.3,-4.55,-39.91,-40.21,0,*5C
1506657791.0,21584,15.19,74468.8,-4.55,-40.03,-40.09,0,*54
1506657792.28,21585,15.19,74468.3,-4.55,-40.09,-40.29,0,*5D
1506657793.51,21586,15.19,74470.8,-4.57,-40.03,-40.21,0,*5E
1506657794.74,21587,15.19,74468.3,-4.57,-39.91,-40.21,0,*5A
1506657796.0,21588,15.19,74468.5,-4.59,-39.85,-40.09,0,*54
1506657797.2,21589,15.19,74470.8,-4.57,-39.65,-39.91,0,*5A
1506657798.44,21590,15.19,74468.3,-4.57,-39.59,-39.91,0,*5D
1506657799.67,21591,15.19,74468.8,-4.57,-39.91,-40.21,0,*5D
1506657800.92,21592,15.19,74468.5,-4.57,-40.09,-40.29,0,*59
1506657802.2,21593,15.19,74470.5,-4.59,-40.09,-40.29,0,*56
1506657803.43,21594,15.19,74468.0,-4.57,-39.91,-40.21,0,*58
1506657804.66,21595,15.19,74468.0,-4.57,-40.03,-40.21,0,*5C
1506657805.88,21596,15.19,74470.8,-4.57,-40.03,-40.21,0,*5F
1506657807.14,21597,15.19,74468.0,-4.59,-39.91,-40.21,0,*55
1506657808.4,21598,15.19,74470.8,-4.59,-39.91,-40.09,0,*50
1506657809.67,21599,15.19,74470.0,-4.59,-39.97,-40.29,0,*55
1506657810.95,21600,15.19,74470.5,-4.59,-40.09,-40.29,0,*5F
1506657812.18,21601,15.19,74468.8,-4.59,-40.15,-40.35,0,*5E
1506657813.41,21602,15.19,74468.5,-4.57,-39.79,-40.03,0,*52
1506657814.64,21603,15.19,74472.3,-4.59,-39.91,-40.15,0,*5C
1506657815.87,21604,15.19,74468.0,-4.59,-39.65,-39.91,0,*52
1506657817.08,21605,15.19,74470.3,-4.57,-39.65,-40.03,0,*58
1506657818.33,21606,15.19,74470.8,-4.59,-39.85,-39.97,0,*58
1506657819.59,21607,15.19,74470.0,-4.59,-39.91,-40.09,0,*55
1506657820.86,21608,15.19,74468.5,-4.59,-39.97,-40.29,0,*5E
1506657822.11,21609,15.19,74468.5,-4.59,-39.85,-39.97,0,*57
1506657823.34,21610,15.19,74474.0,-4.59,-39.85,-40.15,0,*5B
1506657824.58,21611,15.19,74472.5,-4.61,-39.85,-40.09,0,*5C
1506657825.8,21612,15.19,74468.3,-4.63,-39.91,-40.03,0,*52
1506657827.01,21613,15.19,74470.0,-4.61,-39.85,-39.85,0,*54
1506657828.24,21614,15.19,74470.5,-4.61,-39.85,-39.97,0,*50
1506657829.45,21615,15.19,74468.0,-4.61,-39.65,-39.85,0,*5C
1506657830.68,21616,15.19,74468.5,-4.61,-39.91,-40.09,0,*5E
1506657831.91,21617,15.19,74468.0,-4.61,-39.97,-40.15,0,*54
1506657833.17,21618,15.19,74470.3,-4.61,-40.09,-40.29,0,*5D
1506657834.43,21619,15.19,74470.5,-4.63,-40.15,-40.41,0,*5D
1506657835.65,21620,15.19,74470.0,-4.63,-40.03,-40.35,0,*53
1506657836.91,21621,15.19,74464.8,-4.63,-39.59,-39.91,0,*53
1506657838.2,21622,15.19,74468.3,-4.63,-39.79,-39.97,0,*54
1506657839.45,21623,15.19,74468.3,-4.63,-39.79,-40.03,0,*56
1506657840.7,21624,15.19,74470.3,-4.63,-39.97,-40.03,0,*51
1506657841.91,21625,15.19,74470.3,-4.61,-39.91,-40.15,0,*53
1506657843.13,21626,15.19,74470.3,-4.63,-39.91,-40.03,0,*55
1506657844.42,21627,15.19,74470.8,-4.63,-39.79,-39.97,0,*51
1506657845.69,21628,15.19,74468.8,-4.63,-39.97,-40.21,0,*5D
1506657846.97,21629,15.19,74470.5,-4.63,-39.79,-39.97,0,*5F
1506657848.2,21630,15.19,74472.3,-4.63,-39.91,-40.15,0,*55
1506657849.48,21631,15.19,74468.0,-4.63,-39.71,-39.97,0,*5E
1506657850.76,21632,15.19,74468.5,-4.63,-39.71,-39.97,0,*5D
1506657852.04,21633,15.19,74468.0,-4.63,-39.71,-39.97,0,*5C
1506657853.33,21634,15.19,74468.8,-4.63,-39.79,-39.97,0,*53
1506657854.57,21635,15.19,74472.3,-4.63,-39.97,-40.03,0,*51
1506657855.81,21636,15.19,74468.0,-4.63,-39.97,-40.03,0,*52
1506657857.06,21637,15.19,74468.5,-4.63,-39.97,-40.15,0,*54
1506657858.29,21638,15.19,74470.5,-4.63,-39.91,-40.03,0,*5A
1506657859.56,21639,15.19,74470.3,-4.63,-39.53,-39.79,0,*56
1506657860.84,21640,15.19,74468.0,-4.67,-39.97,-40.21,0,*57
1506657862.07,21641,15.19,74470.5,-4.65,-39.97,-40.03,0,*54
1506657863.28,21642,15.19,74468.0,-4.65,-40.15,-40.03,0,*53
1506657864.5,21643,15.19,74468.0,-4.65,-39.97,-40.03,0,*56
1506657865.71,21644,15.19,74470.0,-4.65,-39.91,-40.03,0,*57
1506657866.96,21645,15.19,74468.5,-4.67,-40.03,-40.21,0,*51
1506657868.2,21646,15.19,74468.0,-4.65,-39.91,-39.97,0,*56
1506657869.4,21647,15.19,74468.8,-4.65,-39.91,-40.03,0,*54
1506657870.66,21648,15.19,74470.5,-4.67,-40.03,-40.21,0,*5C
1506657871.91,21649,15.19,74470.3,-4.67,-40.03,-40.21,0,*5D
1506657873.19,21650,15.19,74472.8,-4.67,-39.97,-40.09,0,*5C
1506657874.48,21651,15.19,74470.3,-4.67,-39.79,-39.97,0,*54
1506657875.77,21652,15.19,74466.8,-4.67,-39.79,-39.97,0,*57
1506657877.06,21653,15.19,74468.3,-4.67,-39.79,-40.09,0,*5F
1506657878.3,21654,15.19,74464.3,-4.67,-39.65,-40.03,0,*5F
1506657879.53,21655,15.19,74468.3,-4.67,-39.65,-39.85,0,*5E
1506657880.81,21656,15.19,74474.5,-4.67,-39.97,-40.09,0,*5A
1506657882.06,21657,15.19,74470.8,-4.67,-40.03,-40.21,0,*52
1506657883.35,21658,15.19,74470.3,-4.67,-39.97,-40.09,0,*54
1506657884.63,21659,15.19,74470.8,-4.69,-39.79,-39.97,0,*52
1506657885.86,21660,15.19,74470.5,-4.69,-39.85,-40.03,0,*58
1506657887.11,21661,15.19,74468.5,-4.69,-39.65,-39.97,0,*54
1506657888.34,21662,15.19,74472.3,-4.69,-39.85,-40.03,0,*5A
1506657889.59,21663,15.19,74470.0,-4.69,-39.97,-40.15,0,*5F
1506657890.82,21664,15.19,74468.5,-4.69,-39.65,-39.85,0,*52
1506657892.1,21665,15.19,74470.8,-4.69,-39.59,-39.79,0,*5F
1506657893.33,21666,15.19,74468.0,-4.69,-39.85,-40.03,0,*5E
1506657894.56,21667,15.19,74470.3,-4.71,-39.79,-40.03,0,*55
1506657895.79,21668,15.19,74470.8,-4.69,-39.47,-39.85,0,*5E
1506657897.01,21669,15.19,74472.0,-4.71,-39.53,-39.91,0,*56
1506657898.24,21670,15.19,74468.3,-4.71,-39.71,-40.03,0,*5B
1506657899.49,21671,15.19,74472.0,-4.69,-39.65,-39.97,0,*55
1506657900.75,21672,15.19,74470.3,-4.69,-39.79,-40.03,0,*58
1506657902.03,21673,15.19,74472.8,-4.69,-39.41,-39.59,0,*53
1506657903.28,21674,15.19,74472.3,-4.69,-39.65,-39.97,0,*50
1506657904.54,21675,15.19,74468.0,-4.69,-39.85,-40.09,0,*56
1506657905.82,21676,15.19,74468.3,-4.69,-39.97,-40.09,0,*56
1506657907.02,21677,15.19,74470.3,-4.71,-39.65,-39.91,0,*5C
1506657908.25,21678,15.19,74466.8,-4.71,-39.85,-40.09,0,*52
1506657909.51,21679,15.19,74470.5,-4.69,-39.59,-39.85,0,*51
1506657910.71,21680,15.19,74470.5,-4.71,-39.65,-39.91,0,*54
1506657911.97,21681,15.19,74472.5,-4.69,-39.59,-39.85,0,*56
1506657913.26,21682,15.19,74470.8,-4.69,-39.59,-39.97,0,*56
1506657914.51,21683,15.19,74470.0,-4.69,-39.65,-39.97,0,*58
1506657915.74,21684,15.19,74468.8,-4.71,-39.91,-40.09,0,*54
1506657916.97,21685,15.19,74472.3,-4.69,-39.85,-40.03,0,*53
1506657918.2,21686,15.19,74474.0,-4.71,-39.91,-40.09,0,*56
1506657919.41,21687,15.19,74470.3,-4.71,-39.65,-39.91,0,*53
1506657920.65,21688,15.19,74470.5,-4.71,-39.53,-39.71,0,*57
1506657921.91,21689,15.19,74468.0,-4.71,-39.71,-40.09,0,*57
1506657923.12,21690,15.19,74468.0,-4.71,-39.47,-39.65,0,*5E
1506657924.34,21691,15.19,74470.0,-4.71,-39.71,-40.03,0,*54
1506657925.58,21692,15.19,74472.0,-4.71,-39.85,-40.09,0,*56
1506657926.81,21693,15.19,74472.0,-4.71,-39.85,-40.09,0,*57
1506657928.01,21694,15.19,74470.0,-4.71,-39.85,-40.15,0,*5D
1506657929.25,21695,15.19,74468.5,-4.73,-39.91,-40.15,0,*5B
1506657930.51,21696,15.19,74472.3,-4.73,-39.91,-40.09,0,*55
1506657931.77,21697,15.19,74468.8,-4.73,-39.71,-40.03,0,*50
1506657933.03,21698,15.19,74470.8,-4.77,-39.91,-40.09,0,*5F
1506657934.26,21699,15.19,74468.3,-4.73,-39.65,-40.03,0,*5B
1506657935.51,21700,15.19,74468.0,-4.73,-39.53,-39.85,0,*5F
1506657936.77,21701,15.19,74470.8,-4.73,-39.53,-39.91,0,*5B
1506657938.0,21702,15.19,74468.3,-4.73,-39.65,-39.85,0,*58
1506657939.23,21703,15.19,74472.3,-4.73,-39.65,-39.91,0,*5C
1506657940.52,21704,15.19,74470.0,-4.77,-39.71,-39.79,0,*5C
1506657941.76,21705,15.19,74472.0,-4.73,-39.65,-39.91,0,*5A
1506657943.04,21706,15.19,74470.8,-4.77,-39.71,-39.97,0,*5E
1506657944.31,21707,15.19,74470.0,-4.77,-39.91,-40.09,0,*58
1506657945.6,21708,15.19,74472.0,-4.73,-39.71,-40.09,0,*5D
1506657946.89,21709,15.19,74474.5,-4.77,-39.71,-40.09,0,*58
1506657948.14,21710,15.19,74474.0,-4.73,-39.71,-40.03,0,*5E
1506657949.37,21711,15.19,74474.5,-4.73,-39.85,-40.03,0,*54
1506657950.67,21712,15.19,74470.3,-4.77,-39.79,-40.09,0,*5A
1506657951.96,21713,15.19,74472.8,-4.77,-39.71,-40.09,0,*53
1506657953.25,21714,15.19,74468.8,-4.77,-39.79,-39.97,0,*55
1506657954.55,21715,15.19,74472.0,-4.77,-39.79,-40.09,0,*5D
1506657955.8,21716,15.19,74474.8,-4.73,-39.53,-39.91,0,*5D
1506657957.09,21717,15.19,74470.0,-4.77,-39.71,-39.97,0,*5E
1506657958.35,21718,15.19,74470.5,-4.77,-39.79,-40.15,0,*5D
1506657959.62,21719,15.19,74468.5,-4.77,-39.59,-39.91,0,*5C
1506657960.85,21720,15.19,74470.8,-4.79,-39.65,-39.97,0,*51
1506657962.12,21721,15.19,74470.0,-4.77,-39.71,-39.91,0,*5D
1506657963.37,21722,15.19,74474.0,-4.77,-39.53,-39.91,0,*5E
1506657964.66,21723,15.19,74470.0,-4.77,-39.79,-39.97,0,*51
1506657965.92,21724,15.19,74470.8,-4.77,-39.97,-40.15,0,*52
1506657967.19,21725,15.19,74470.3,-4.77,-39.59,-39.91,0,*53
1506657968.39,21726,15.19,74468.5,-4.79,-39.65,-40.03,0,*54
1506657969.59,21727,15.19,74468.0,-4.79,-39.85,-40.03,0,*5B
1506657970.86,21728,15.19,74470.3,-4.79,-39.59,-39.97,0,*56
1506657972.06,21729,15.19,74472.5,-4.79,-39.85,-40.15,0,*52
1506657973.31,21730,15.19,74470.0,-4.79,-39.97,-40.21,0,*5E
1506657974.58,21731,15.19,74468.0,-4.81,-39.79,-40.15,0,*5F
1506657975.84,21732,15.19,74474.0,-4.79,-39.59,-39.79,0,*5D
1506657977.05,21733,15.19,74468.5,-4.79,-39.85,-40.03,0,*5E
1506657978.32,21734,15.19,74470.0,-4.81,-39.97,-40.21,0,*5D
1506657979.56,21735,15.19,74472.5,-4.79,-39.79,-40.15,0,*5C
1506657980.77,21736,15.19,74468.0,-4.79,-39.65,-39.85,0,*55
1506657982.03,21737,15.19,74472.0,-4.79,-39.79,-39.97,0,*5A
1506657983.26,21738,15.19,74468.0,-4.81,-39.65,-40.03,0,*5C
1506657984.52,21739,15.19,74474.3,-4.81,-39.79,-40.03,0,*50
1506657985.76,21740,15.19,74470.8,-4.81,-39.85,-40.15,0,*5A
1506657987.04,21741,15.19,74470.8,-4.81,-39.59,-39.97,0,*5E
1506657988.28,21742,15.19,74468.0,-4.79,-39.79,-40.03,0,*5B
1506657989.57,21743,15.19,74468.5,-4.81,-39.79,-39.97,0,*5E
1506657990.83,21744,15.19,74472.0,-4.79,-39.59,-39.79,0,*5C
1506657992.09,21745,15.19,74472.0,-4.81,-39.65,-39.97,0,*55
1506657993.35,21746,15.19,74468.0,-4.81,-39.59,-40.03,0,*5A
1506657994.64,21747,15.19,74468.5,-4.81,-39.79,-39.97,0,*5A
1506657995.87,21748,15.19,74472.0,-4.79,-39.85,-40.21,0,*52
1506657997.15,21749,15.19,74470.3,-4.81,-39.97,-40.21,0,*57
1506657998.44,21750,15.19,74472.3,-4.81,-39.79,-39.97,0,*5C
1506657999.67,21751,15.19,74474.8,-4.81,-39.85,-40.15,0,*5A
1506658000.96,21752,15.19,74474.5,-4.81,-39.79,-39.97,0,*5E
1506658002.22,21753,15.19,74470.0,-4.81,-39.85,-39.97,0,*5C
1506658003.43,21754,15.19,74470.5,-4.83,-39.85,-40.15,0,*5D
1506658004.67,21755,15.19,74472.0,-4.83,-39.91,-40.29,0,*56
1506658005.9,21756,15.19,74472.5,-4.83,-39.65,-39.71,0,*5D
1506658007.19,21757,15.19,74470.5,-4.81,-39.79,-39.97,0,*5B
1506658008.45,21758,15.19,74470.8,-4.81,-39.79,-40.03,0,*57
1506658009.72,21759,15.19,74470.5,-4.85,-39.85,-40.09,0,*5B
1506658010.95,21760,15.19,74470.5,-4.81,-39.85,-40.15,0,*58
1506658012.21,21761,15.19,74472.8,-4.81,-39.79,-40.03,0,*5D
1506658013.42,21762,15.19,74470.5,-4.83,-39.85,-40.03,0,*5F
1506658014.66,21763,15.19,74470.5,-4.83,-39.85,-40.09,0,*54
1506658015.92,21764,15.19,74468.8,-4.85,-39.71,-39.91,0,*51
1506658017.15,21765,15.19,74472.0,-4.83,-39.71,-40.03,0,*53
1506658018.39,21766,15.19,74472.0,-4.83,-39.71,-39.91,0,*55
1506658019.66,21767,15.19,74470.8,-4.83,-39.71,-40.09,0,*5B
1506658020.92,21768,15.19,74474.5,-4.85,-39.91,-40.21,0,*56
1506658022.16,21769,15.19,74468.0,-4.83,-39.91,-40.21,0,*51
1506658023.39,21770,15.19,74474.8,-4.85,-39.85,-40.03,0,*5A
1506658024.65,21771,15.19,74470.8,-4.85,-39.71,-40.03,0,*50
1506658025.91,21772,15.19,74474.0,-4.83,-39.71,-40.09,0,*5F
1506658027.18,21773,15.19,74468.5,-4.85,-39.91,-40.29,0,*54
1506658028.42,21774,15.19,74472.5,-4.83,-39.85,-40.09,0,*52
1506658029.68,21775,15.19,74468.8,-4.85,-39.71,-40.03,0,*54
1506658030.94,21776,15.19,74470.0,-4.85,-39.71,-40.03,0,*57
1506658032.19,21777,15.19,74470.5,-4.85,-39.53,-39.91,0,*53
1506658033.4,21778,15.19,74468.8,-4.83,-39.85,-40.03,0,*54
1506658034.63,21779,15.19,74470.5,-4.85,-39.85,-40.03,0,*53
1506658035.87,21780,15.19,74470.5,-4.85,-39.65,-40.03,0,*5B
1506658037.13,21781,15.19,74470.3,-4.85,-39.71,-40.03,0,*5F
1506658038.36,21782,15.19,74470.5,-4.85,-39.85,-40.03,0,*57
1506658039.62,21783,15.19,74468.5,-4.85,-39.91,-40.21,0,*53
1506658040.91,21784,15.19,74474.3,-4.85,-39.71,-40.09,0,*50
1506658042.17,21785,15.19,74468.8,-4.85,-40.03,-40.29,0,*58
1506658043.43,21786,15.19,74468.0,-4.85,-39.71,-40.03,0,*58
1506658044.69,21787,15.19,74472.3,-4.85,-39.71,-39.91,0,*5C
1506658045.95,21788,15.19,74470.5,-4.85,-39.53,-39.85,0,*56
1506658047.19,21789,15.19,74472.0,-4.85,-39.65,-39.91,0,*57
1506658048.45,21790,15.19,74470.8,-4.85,-39.85,-40.21,0,*54
1506658049.7,21791,15.19,74470.5,-4.87,-39.97,-40.29,0,*5C
1506658050.97,21792,15.19,74468.0,-4.87,-39.79,-40.09,0,*5D
1506658052.26,21793,15.19,74470.3,-4.89,-39.71,-39.97,0,*53
1506658053.52,21794,15.19,74470.8,-4.85,-39.71,-40.03,0,*5B
1506658054.78,21795,15.19,74470.0,-4.87,-39.71,-39.97,0,*5B
1506658056.06,21796,15.19,74472.3,-4.89,-39.97,-40.29,0,*55
1506658057.35,21797,15.19,74468.5,-4.89,-39.79,-40.09,0,*56
1506658058.62,21798,15.19,74470.8,-4.87,-39.79,-39.97,0,*5E
1506658059.85,21799,15.19,74474.0,-4.87,-39.91,-40.29,0,*52
1506658061.12,21800,15.19,74472.5,-4.87,-39.79,-40.09,0,*59
1506658062.33,21801,15.19,74466.5,-4.87,-39.91,-40.15,0,*53
1506658063.6,21802,15.19,74474.0,-4.87,-39.79,-39.97,0,*52
1506658064.86,21803,15.19,74470.8,-4.87,-39.71,-40.09,0,*52
1506658066.13,21804,15.19,74468.0,-4.87,-39.79,-39.97,0,*54
1506658067.39,21805,15.19,74474.3,-4.89,-39.71,-39.91,0,*55
1506658068.68,21806,15.19,74472.5,-4.89,-39.71,-39.71,0,*58
1506658069.92,21807,15.19,74474.0,-4.89,-39.91,-40.15,0,*5B
1506658071.2,21808,15.19,74470.5,-4.89,-39.97,-40.29,0,*5D
1506658072.46,21809,15.19,74470.8,-4.89,-40.09,-40.35,0,*58
1506658073.7,21810,15.19,74474.3,-4.89,-39.91,-40.15,0,*5D
1506658075.0,21811,15.19,74470.3,-4.89,-39.79,-40.09,0,*57
1506658076.21,21812,15.19,74472.8,-4.87,-39.91,-40.15,0,*51
1506658077.47,21813,15.19,74472.0,-4.89,-39.91,-40.09,0,*53
1506658078.73,21814,15.19,74470.5,-4.89,-39.97,-40.15,0,*5F
1506658079.96,21815,15.19,74470.0,-4.91,-39.97,-40.15,0,*57
1506658081.17,21816,15.19,74472.3,-4.91,-39.85,-40.03,0,*50
1506658082.4,21817,15.19,74470.5,-4.91,-39.65,-39.79,0,*5C
1506658083.64,21818,15.19,74468.5,-4.91,-39.59,-39.85,0,*5F
1506658084.89,21819,15.19,74470.8,-4.91,-39.79,-40.15,0,*5B
1506658086.14,21820,15.19,74472.0,-4.93,-40.03,-40.21,0,*57
1506658087.37,21821,15.19,74470.3,-4.93,-40.03,-40.35,0,*53
1506658088.63,21822,15.19,74474.3,-4.93,-40.03,-40.41,0,*53
1506658089.87,21823,15.19,74468.5,-4.91,-40.03,-40.41,0,*50
1506658091.1,21824,15.19,74468.8,-4.91,-39.79,-40.03,0,*52
1506658092.34,21825,15.19,74468.8,-4.91,-39.79,-40.03,0,*53
1506658093.58,21826,15.19,74468.5,-4.91,-39.47,-39.79,0,*5E
1506658094.81,21827,15.19,74468.8,-4.91,-39.29,-39.65,0,*5A
1506658096.02,21828,15.19,74472.3,-4.91,-39.65,-39.85,0,*53
1506658097.25,21829,15.19,74472.0,-4.91,-39.41,-39.65,0,*5A
1506658098.49,21830,15.13,74468.5,-4.91,-39.41,-39.65,0,*52